Regional Weather Roundup
Issued by NWS Sterling, VA

Home | Current Version | Previous Version | Graphics & Text | Print | Product List | Glossary On
Versions: 1 2 3 4 5 6 7 8 9 10 11 12 13 14 15 16 17 18 19 20 21 22 23 24 25 26 27 28 29 30 31 32 33 34 35 36 37 38 39 40 41 42 43 44 45 46 47 48 49 50
000
ASUS41 KLWX 261610
RWRLWX

REGIONAL WEATHER ROUNDUP
NATIONAL WEATHER SERVICE BALTIMORE MD/WASHINGTON DC
1100 AM EST THU FEB 26 2015

Note: "FAIR" indicates few or no clouds below 12,000 feet
with no significant weather and/or obstructions to visibility.
 TC=TEMPERATURE CELSIUS

 * =Non NWS site. Station does not report precipitation (e.g. rain,
    snow, etc.), thunder, or fog.

DCZ001-MDZ009-015-VAZ040>042-051-053>054-261700-
WASHINGTON METRO

CITY           SKY/WX    TMP DP  RH WIND       PRES   REMARKS
WASHINGTON NAT CLOUDY    33  25  72 N13       29.92F WCI  24
DULLES         CLOUDY    30  23  75 N10       29.91F WCI  21
ANDREWS AFB    PTSUNNY   29  25  82 N14       29.89F WCI  19
FT BELVOIR     PTSUNNY   32  25  74 N6        29.93R
QUANTICO       CLOUDY    32  25  75 NE13G22   29.93R WCI  22
COLLEGE PARK*  PTSUNNY   32  27  80 N6        29.92F
LEESBURG*      CLOUDY    32  28  86 N10       29.93S WCI  24
GAITHERSBURG*  CLOUDY    30  23  74 N7        29.94F

$$

MDZ006>007-011-014-261700-
BALTIMORE METRO

CITY           SKY/WX    TMP DP  RH WIND       PRES   REMARKS
BWI AIRPORT    LGT SNOW  29  23  78 NE7       29.91F
MD SCIENCE CTR   N/A     28  21  75 MISG      29.91F
MARTIN STATE   LGT SNOW  28  25  86 N6        29.96F
ANNAPOLIS      LGT SNOW  28  24  85 N13G21    29.91F FOG     WCI  17
FORT MEADE*    PTSUNNY   30  25  80 N7        29.94F

$$

MDZ012-015-019>023-261700-
MARYLAND EASTERN SHORE

CITY           SKY/WX    TMP DP  RH WIND       PRES   REMARKS
OCEAN CITY     LGT SNOW  29  26  89 NE22G31   29.83F FOG     WCI  15
SALISBURY      LGT SNOW  33  27  78 NE17G26   29.83F WCI  22
BAY BRIDGE AP*   N/A     30  25  80 N14G20    29.90F WCI  20
CAMBRIDGE*     CLOUDY    32  30  93 N14       29.86F WCI  22
EASTON*        LGT SNOW  32  32 100 NE12      29.92F VSB 1   WCI  23

$$

MDZ017>025-261700-
SOUTHERN MARYLAND

CITY           SKY/WX    TMP DP  RH WIND       PRES   REMARKS
PATUXENT RIVER LGT SNOW  30  26  85 N21G28    29.86F FOG     WCI  17
ST INIGOES     LGT SNOW  32  26  78 N15G26    29.84F WCI  22
LEONARDTOWN*   CLOUDY    32  28  86 N9G16     29.88S WCI  24

$$

MDZ003>005-261700-
NORTH CENTRAL MARYLAND

CITY           SKY/WX    TMP DP  RH WIND       PRES   REMARKS
FREDERICK*     CLOUDY   N/A N/A N/A N14       29.98
HAGERSTOWN APT CLOUDY    26  19  74 N12       29.92F WCI  16
WESTMINSTER*   PTSUNNY   25  19  80 NE8       29.90F WCI  16

$$

MDZ501>502-261700-
WESTERN MARYLAND

CITY           SKY/WX    TMP DP  RH WIND       PRES   REMARKS
OAKLAND*       CLOUDY    27  19  74 SE7       29.76S HAZE
CUMBERLAND*    MOSUNNY   32  21  64 NE3       29.95S

$$

VAZ025>031-261700-
SHENANDOAH VALLEY

CITY           SKY/WX    TMP DP  RH WIND       PRES   REMARKS
WINCHESTER*    CLOUDY    32  23  69 N3        29.91S
FRONT ROYAL*   CLOUDY    30  25  80 N6        29.90S
LURAY*         CLOUDY    32  30  93 N8        29.87F WCI  25
NEW MARKET*    CLOUDY    30  24  79 NE13      29.86F WCI  20
STAUNTON*      CLOUDY    32  26  78 N6        29.87R HAZE
WAYNESBORO*    CLOUDY    28  25  87 N3        29.83F

$$

WVZ021-048>050-054>055-261700-
EASTERN WEST VIRGINIA PANHANDLE

CITY           SKY/WX    TMP DP  RH WIND       PRES   REMARKS
MARTINSBURG    CLOUDY    29  22  75 N10       29.93S WCI  20
PETERSBURG*    NOT AVBL

$$

VAZ036>039-050-261700-
CENTRAL FOOTHILLS

CITY           SKY/WX    TMP DP  RH WIND       PRES   REMARKS
CHARLOTTESVILL PTSUNNY   32  24  72 NE14      29.87F WCI  22
CULPEPER*      CLOUDY    34  28  80 NE6       29.90F
ORANGE*        CLOUDY    32  28  86 N12       29.89F WCI  23
GORDONSVILLE*  CLOUDY    31  25  78 NE10      29.87F WCI  23
WARRENTON*     CLOUDY    33  31  93 N9        29.90S WCI  25

$$

VAZ055>057-261700-
NORTH AND CENTRAL PIEDMONT

CITY           SKY/WX    TMP DP  RH WIND       PRES   REMARKS
FREDERICKSBRG* CLOUDY    33  29  85 N13       29.90R WCI  24
STAFFORD*      CLOUDY    31  31  96 N10G16    29.94S WCI  23

$$

NCZ024-NYZ072-PAZ021-071-VAZ022-071-261700-
OTHER REGIONAL OBSERVATIONS

CITY           SKY/WX    TMP DP  RH WIND       PRES   REMARKS
NEW YORK CITY  CLOUDY    23   6  48 VRB6      30.03S
PHILADELPHIA   CLOUDY    29  11  47 N18G28    29.96F WCI  16
PITTSBURGH     FLURRIES  18   8  65 N12       29.92R WCI   5
ROANOKE        CLOUDY    34  25  69 NE8       29.87R WCI  27
RICHMOND       LGT SNOW  33  27  78 NE15G22   29.85R VSB 1   WCI  23
RALEIGH        CLOUDY    33  28  81 NE9       29.83S WCI  25

$$

ANZ530>537-261700-
MARINE OBSERVATIONS

STATION/POSITION TIME  TEMP    WIND        PRES
                       AIR SEA DIR/SP/G
                 (UTC) (F)     (DEG/KT/KT) (MB)
THOMAS PT LIGHT  1600   26 31   10/ 20/ 22 1013.2F
BALT KEY BRIDGE  1500   25      20/ 12/ 15 1014.0F
COVE POINT       1500   28      20/ 17/ 20 1011.7F
LEWISETTA        1500   30 32   20/  8/ 13 1010.6F
SOLOMONS ISLAND  1500      32                N/A

$$




USA.gov is the U.S. government's official web portal to all federal, state and local government web resources and services.